Satellite-Ground Cal/Val Region Overpasses Predictions

Prediction of Satellite NPP Overpassing Cal/Val Region: PacNW

Region Location: (Latitude: 10.00, Longitude: 139.50) to (Latitude: 22.70, Longitude: 165.60).

Table of predicted overpasses for the next 14.0 days since TLE Epoch: 11/24/2018
Interval Starting Time Starting Location Ending Time Ending Location
1 11/25/2018 02:27:05 ( 10.04, 162.97) 11/25/2018 02:30:40 ( 22.67, 159.97)
2 11/25/2018 14:58:57 ( 22.66, 160.20) 11/25/2018 15:02:32 ( 10.04, 157.20)
3 11/26/2018 02:10:38 ( 19.17, 165.59) 11/26/2018 02:11:38 ( 22.69, 164.72)
4 11/26/2018 03:49:32 ( 10.01, 142.36) 11/26/2018 03:52:57 ( 22.05, 139.51)
5 11/26/2018 14:39:55 ( 22.70, 164.97) 11/26/2018 14:43:31 ( 10.02, 161.95)
6 11/26/2018 16:21:25 ( 22.69, 139.59) 11/26/2018 16:21:31 ( 22.34, 139.50)
7 11/27/2018 03:30:31 ( 10.04, 147.11) 11/27/2018 03:34:06 ( 22.66, 144.11)
8 11/27/2018 16:02:23 ( 22.67, 144.34) 11/27/2018 16:05:58 ( 10.05, 141.34)
9 11/28/2018 03:11:28 ( 10.01, 151.88) 11/28/2018 03:15:04 ( 22.69, 148.86)
10 11/28/2018 15:43:22 ( 22.64, 149.09) 11/28/2018 15:46:57 ( 10.02, 146.09)
11 11/29/2018 02:52:27 ( 10.03, 156.63) 11/29/2018 02:56:02 ( 22.65, 153.63)
12 11/29/2018 15:24:20 ( 22.68, 153.85) 11/29/2018 15:27:55 ( 10.06, 150.86)
13 11/30/2018 02:33:25 ( 10.06, 161.38) 11/30/2018 02:37:00 ( 22.68, 158.38)
14 11/30/2018 15:05:18 ( 22.65, 158.60) 11/30/2018 15:08:53 ( 10.03, 155.61)
15 12/01/2018 02:15:04 ( 12.43, 165.59) 12/01/2018 02:17:58 ( 22.65, 163.14)
16 12/01/2018 03:55:53 ( 10.03, 140.77) 12/01/2018 03:57:26 ( 15.49, 139.50)
17 12/01/2018 14:46:16 ( 22.68, 163.37) 12/01/2018 14:49:52 ( 10.00, 160.36)
18 12/02/2018 03:36:51 ( 10.06, 145.52) 12/02/2018 03:40:26 ( 22.68, 142.52)
19 12/02/2018 14:30:14 ( 12.09, 165.59) 12/02/2018 14:30:49 ( 10.04, 165.12)
20 12/02/2018 16:08:44 ( 22.65, 142.74) 12/02/2018 16:12:19 ( 10.03, 139.74)
21 12/03/2018 03:17:49 ( 10.02, 150.28) 12/03/2018 03:21:24 ( 22.65, 147.28)
22 12/03/2018 15:49:42 ( 22.68, 147.51) 12/03/2018 15:53:18 ( 10.01, 144.49)
23 12/04/2018 02:58:47 ( 10.05, 155.03) 12/04/2018 03:02:22 ( 22.67, 152.03)
24 12/04/2018 15:30:40 ( 22.66, 152.26) 12/04/2018 15:34:15 ( 10.04, 149.26)
25 12/05/2018 02:39:45 ( 10.02, 159.79) 12/05/2018 02:43:20 ( 22.64, 156.79)
26 12/05/2018 15:11:38 ( 22.69, 157.02) 12/05/2018 15:15:14 ( 10.01, 154.01)
27 12/06/2018 02:20:44 ( 10.05, 164.54) 12/06/2018 02:24:19 ( 22.67, 161.54)
28 12/06/2018 14:52:36 ( 22.66, 161.77) 12/06/2018 14:56:11 ( 10.04, 158.77)
29 12/07/2018 03:43:11 ( 10.02, 143.93) 12/07/2018 03:46:46 ( 22.65, 140.93)
30 12/07/2018 14:34:39 ( 18.88, 165.60) 12/07/2018 14:37:10 ( 10.01, 163.52)
31 12/07/2018 16:15:04 ( 22.69, 141.16) 12/07/2018 16:17:00 ( 15.88, 139.51)
32 12/08/2018 03:24:10 ( 10.05, 148.68) 12/08/2018 03:27:45 ( 22.68, 145.68)


NCC Satellite Cal/Val Overpasses Prediction Service
